Tracking 28790 objects as of 19-Apr-2024
HD Live streaming from Space Station
objects crossing your sky now

STARLINK-5177

Track STARLINK-5177 now!
10-day predictions
STARLINK-5177 is classified as:


NORAD ID: 54090
Int'l Code: 2022-136AR
Perigee: 545.8 km
Apogee: 548.0 km
Inclination: 53.2 °
Period: 95.4 minutes
Semi major axis: 6917 km
RCS: Unknown
Launch date: October 20, 2022
Source: United States (US)
Launch site: AIR FORCE EASTERN TEST RANGE (AFETR)
Your satellite tracking list
Your tracking list is empty




NASA's NSSDC Master Catalog

Two Line Element Set (TLE):
1 54090U 22136AR  24109.52302937 -.00001614  00000-0 -83373-4 0  9991
2 54090  53.2160 192.3063 0001547 101.7699 258.3467 15.08829412 82792
Source of the keplerian elements: AFSPC